Location: Fort Frances
(48.6170°N, 93.4170°W)
Time: 04:22:09
(UTC-06:00)

Iridium 53 - Visible Passes

Search period start: 23 February 2018 00:00
Search period end: 05 March 2018 00:00
Orbit: 776 x 779 km, 86.4° (Epoch: 22 February)

Date Brightness Start Highest point End Pass type
(mag) Time Alt. Az. Time Alt. Az. Time Alt. Az.
23 Feb 8.8 04:52:18 10° E 04:54:28 13° ENE 04:56:39 10° NE visible
23 Feb 5.7 06:29:07 10° S 06:34:20 85° E 06:39:35 10° N visible
23 Feb 7.0 18:35:43 10° NNW 18:40:38 43° W 18:45:33 10° SSW visible
24 Feb 6.6 05:55:52 10° SSE 06:00:53 49° E 06:05:55 10° NNE visible
24 Feb 9.0 19:45:41 10° WNW 19:46:58 11° WNW 19:48:16 10° W visible
25 Feb 7.7 05:23:06 10° SE 05:27:32 29° E 05:32:00 10° NNE visible
25 Feb 8.5 19:10:18 10° NNW 19:13:51 19° WNW 19:17:25 10° WSW visible
26 Feb 8.4 04:50:58 10° ESE 04:54:20 18° ENE 04:57:42 10° NE visible
26 Feb 7.7 18:36:04 10° NNW 18:40:38 31° W 18:45:11 10° SW visible
27 Feb 5.9 05:55:45 10° S 06:00:55 69° E 06:06:08 10° N visible
28 Feb 7.0 05:22:42 10° SSE 05:27:31 40° E 05:32:22 10° NNE visible
28 Feb 8.7 19:11:12 10° NW 19:13:44 14° WNW 19:16:16 10° WSW visible
01 Mar 7.9 04:50:08 10° SE 04:54:15 24° E 04:58:21 10° NNE visible
01 Mar 8.3 18:36:32 10° NNW 18:40:35 23° W 18:44:37 10° SW visible
02 Mar 8.6 04:18:24 10° ESE 04:21:04 14° ENE 04:23:45 10° NE visible
02 Mar 5.5 05:55:48 10° S 06:01:01 86° W 06:06:17 10° N visible
03 Mar 6.3 05:22:28 10° SSE 05:27:33 55° E 05:32:39 10° NNE visible
04 Mar 7.4 04:49:36 10° SE 04:54:12 32° E 04:58:48 10° NNE visible
04 Mar 8.5 18:37:13 10° NW 18:40:29 17° WNW 18:43:45 10° WSW visible
